|
CZ-4C R/B - Orbit
|
Pinhead Observatory;
03:02:33
| Home | Info | Passes |
|
View from above orbital plane
|
View from above satellite
|
Ground track
|
The orbit data is extracted from the following two-line orbital elements,
1 36416U 10009D 13140.52113302 -.00000085 00000-0 99765-5 0 5403
2 36416 063.4534 290.6788 0241460 003.2036 055.3728 13.69372795160524
| Epoch (UTC): | 20 May 2013 12:30:25 |
| Eccentricity: | 0.0241460 |
| inclination: | 63.4534° |
| perigee height: | 823 km |
| apogee height: | 1180 km |
| right ascension of ascending node: | 290.6788° |
| argument of perigee: | 3.2036° |
| revolutions per day: | 13.69372795 |
| mean anomaly at epoch: | 55.3728° |
| orbit number at epoch: | 16052 |
The dashed part of the orbit path shows where the satellite is in the earth's shadow,
|
|